This is the latest recevied weather packets stored in our database for station/object K5BV. If no packets are shown the sender has not sent any weather packets the latest 10 day(s).
| Time | Temp. | Humidity | Pressure | Rain* | Wind** | Luminosity | Snow |
|---|---|---|---|---|---|---|---|
| 1777578161 | 27.78° C | 84% | 1009 hPa | 0 mm | - | - | - |
| 1777577562 | 28.33° C | 83% | 1009.1 hPa | 0 mm | - | - | - |
| 1777576962 | 28.89° C | 81% | 1009 hPa | 0 mm | - | - | - |
| 1777576362 | 28.89° C | 81% | 1009 hPa | 0 mm | - | - | - |
| 1777575761 | 29.44° C | 80% | 1009.3 hPa | 0 mm | - | - | - |
| 1777575161 | 28.89° C | 80% | 1009.4 hPa | 0 mm | - | - | - |
| 1777574562 | 28.89° C | 79% | 1009.5 hPa | 0 mm | - | - | - |
| 1777573961 | 28.33° C | 80% | 1009.5 hPa | 0 mm | - | - | - |
| 1777573361 | 28.33° C | 82% | 1009.6 hPa | 0 mm | - | - | - |
| 1777572762 | 28.33° C | 82% | 1010 hPa | 0 mm | - | - | - |
| 1777572161 | 27.78° C | 84% | 1010 hPa | 0 mm | - | - | - |
| 1777571562 | 27.78° C | 84% | 1010.3 hPa | 0 mm | - | - | - |
| 1777570962 | 27.78° C | 84% | 1010.4 hPa | 0 mm | - | - | - |
| 1777570362 | 27.22° C | 86% | 1010.3 hPa | 0 mm | - | - | - |
| 1777569762 | 26.67° C | 87% | 1010.4 hPa | 0 mm | - | - | - |
| 1777569162 | 26.67° C | 88% | 1010.9 hPa | 0 mm | - | - | - |
| 1777568571 | 26.67° C | 88% | 1011 hPa | 0 mm | - | - | - |
| 1777567961 | 26.11° C | 87% | 1011.1 hPa | 0 mm | - | - | - |
| 1777567362 | 26.67° C | 86% | 1011.2 hPa | 0 mm | - | - | - |
| 1777566762 | 27.22° C | 84% | 1010.9 hPa | 0 mm | - | - | - |
| 1777566162 | 27.78° C | 84% | 1010.9 hPa | 0 mm | - | - | - |
| 1777565562 | 27.78° C | 82% | 1010.8 hPa | 0 mm | - | - | - |
| 1777564961 | 27.78° C | 84% | 1010.7 hPa | 0 mm | - | - | - |
| 1777564361 | 27.78° C | 83% | 1010.7 hPa | 0 mm | - | - | - |
| 1777563762 | 27.22° C | 85% | 1010.7 hPa | 0 mm | - | - | - |
* Rain latest hour (hover to see other rain measurements)
** Current wind speed in m/s (hover to see current wind gust speed)